This demonstration page uses our WeatherBlox Daily Observations layout. Learn more.

Left ArrowRight Arrow

36.19886, -115.1175

Hourly Observations for August 14, 2015

Temp ( °F °C ) Dew Point ( °F °C ) Humidity (%) Winds ( mph kmh ) Pressure ( in mb ) Visibility ( mi km ) Precip ( " mm )
12:53 am 00:53 Clear 83 28.3 66 18.9 57 57 N 5 7 29.93 1014 10 16 0.00 0.00
1:53 am 01:53 Clear 80 26.7 67 19.4 64 64 ESE 3 6 29.94 1014 10 16 0.00 0.00
2:53 am 02:53 Clear 82 27.8 67 19.4 60 60 WSW 3 6 29.93 1014 10 16 0.00 0.00
3:53 am 03:53 Clear 83 28.3 64 17.8 53 53 WSW 5 7 29.95 1014 10 16 0.00 0.00
4:53 am 04:53 Clear 80 26.7 65 18.3 60 60 NNE 6 9 29.96 1014 10 16 0.00 0.00
5:53 am 05:53 Clear 79 26.1 64 17.8 60 60 NNW 5 7 29.97 1015 10 16 0.00 0.00
6:53 am 06:53 Sunny 81 27.2 62 16.7 53 53 N 5 7 29.98 1015 10 16 0.00 0.00
7:53 am 07:53 Sunny 84 28.9 62 16.7 48 48 Calm 30.00 1016 10 16 0.00 0.00
8:53 am 08:53 Sunny 87 30.6 60 15.6 40 40 SE 3 6 29.99 1016 10 16 0.00 0.00
9:53 am 09:53 Sunny 91 32.8 58 14.4 33 33 undefined N/A 29.99 1016 10 16 0.00 0.00
10:53 am 10:53 Sunny 95 35 56 13.3 27 27 SSE 9 15 29.98 1015 10 16 0.00 0.00
11:53 am 11:53 Sunny 97 36.1 57 13.9 26 26 SSE 9 15 29.96 1015 10 16 0.00 0.00
12:53 pm 12:53 Sunny 100 37.8 56 13.3 23 23 SSE 12 19 29.93 1014 10 16 0.00 0.00
1:53 pm 13:53 Sunny 103 39.4 55 12.8 20 20 ESE 12 19 29.91 1013 10 16 0.00 0.00
2:42 pm 14:42 Sunny with Thunderstorms 99 37 54 12 22 22 SSW 23 37 29.74 1007 10 16 0.00 0.00
2:53 pm 14:53 Sunny with Thunderstorms 98 36.7 56 13.3 24 24 SSW 24 39 29.91 1013 10 16 0.00 0.00
3:53 pm 15:53 Partly Cloudy with Thunderstorms 97 36.1 55 12.8 24 24 WSW 8 13 29.92 1013 10 16 0.00 0.03
4:53 pm 16:53 Sunny 94 34.4 56 13.3 28 28 SW 13 20 29.92 1013 10 16 0.00 0.00
5:53 pm 17:53 Sunny 96 35.6 57 13.9 27 27 SSW 8 13 29.89 1012 10 16 0.00 0.00
6:53 pm 18:53 Sunny 94 34.4 57 13.9 29 29 SSE 14 22 29.89 1012 10 16 0.00 0.00
7:53 pm 19:53 Clear 93 33.9 57 13.9 30 30 SSE 3 6 29.90 1012 10 16 0.00 0.00
8:53 pm 20:53 Clear 92 33.3 58 14.4 32 32 S 6 9 29.92 1013 10 16 0.00 0.00
9:53 pm 21:53 Clear 92 33.3 58 14.4 32 32 NNE 5 7 29.93 1013 10 16 0.00 0.00
10:53 pm 22:53 Clear 91 32.8 58 14.4 33 33 ENE 5 7 29.93 1013 10 16 0.00 0.00
11:53 pm 23:53 Clear 89 31.7 56 13.3 33 33 ENE 3 6 29.93 1013 10 16 0.00 0.00

Powered by AerisWeather